sat.trackr.live / text

‹ back to catalog

STARLINK-6238

NORAD 56428 · 2023-061BG

PAYLOAD ACTIVE UNKNOWN

§ Identity

Operator
Country
US
Launch date
2023-05-04
Launch site
AFETR
Launch vehicle
Mass (kg)
RCS (m²)

Purposes: comms

External: N2YO · Heavens-Above · Gunter

§ Orbital elements

Epoch: 2026-09-20T23:27:14.208192Z

Period
94.27 min
Inclination
43.0023°
Eccentricity
0.0001429
Mean motion
15.27578272 rev/d
Perigee alt
482.1 km
Apogee alt
484.0 km
Semi-major
6,861.2 km
B*
2.9793e-5
RAAN
156.9062°
Arg perigee
267.8234°
Mean anomaly
92.2454°
Rev number
18,682

§ Raw data

STARLINK-62381 56428U 23061BG  26263.97724778  .00000558  00000+0  29793-4 0  99982 56428  43.0023 156.9062 0001429 267.8234  92.2454 15.27578272186823

JSON: /api/v1/satellites/56428 · /tle

For live sub-satellite position, see the globe view (requires WebGL).

§ Visibility from observer

Set your observer location to see the next 7 days of passes ≥ 10°. The values pass through the URL so the page stays shareable.

No JS? Fill the form by hand. The geolocation button needs JavaScript.